Change the Weather History Date:

Thursday, February 21, 2013

  Actual Average Record
Temperature  
Mean Temperature 24 °F -  
Max Temperature 28 °F 26 °F 42 °F (1997)
Min Temperature 21 °F 7 °F -28 °F (1990)
Degree Days  
Heating Degree Days 40    
Moisture  
Dew Point 23 °F    
Average Humidity 92    
Maximum Humidity 100    
Minimum Humidity 86    
Precipitation  
Precipitation 0.01 in - - ()
Sea Level Pressure  
Sea Level Pressure 29.17 in    
Wind  
Wind Speed 3 mph (North)    
Max Wind Speed 9 mph    
Max Gust Speed -    
Visibility 7 miles    
Events Snow    
Averages and records for this station are not official NWS values.
T = Trace of Precipitation, MM = Missing Value Source: NWS Daily Summary

Daily Weather History Graph

Daily Weather History Graph

Search for Another Location

Airport or City:

Trip Planner

Search our weather history database for the weather conditions in past years. The results will help you decide how hot, cold, wet, or windy it might be!

Date:

Astronomy

Feb. 21, 2013 Rise Set
Actual Time 8:26 AM AKST 6:11 PM AKST
Civil Twilight 7:43 AM AKST 6:55 PM AKST
Nautical Twilight 6:53 AM AKST 7:44 PM AKST
Astronomical Twilight 6:04 AM AKST 8:33 PM AKST
Moon 1:52 PM AKST (2/21) 6:23 AM AKST (2/21)
Length of Visible Light 11h 12m
Length of Day
9h 45m
Waxing Gibbous, 85% of the Moon is Illuminated
Feb 21
Waxing Gibbous
Feb 25
Full
Mar 4
Last Quarter
Mar 11
New
Mar 19
First Quarter

Hourly Weather History & Observations

Time (AKST) Temp. Windchill Dew Point Humidity Pressure Visibility Wind Dir Wind Speed Gust Speed Precip Events Conditions
12:53 AM 23.0 °F - 21.9 °F 96% 29.26 in 10.0 mi Calm Calm - N/A   Overcast
1:53 AM 24.1 °F - 21.9 °F 91% 29.26 in 10.0 mi Calm Calm - N/A   Overcast
3:23 AM 23.0 °F 17.0 °F 21.2 °F 93% 29.24 in 10.0 mi NNW 4.6 mph - N/A   Overcast
3:53 AM 24.1 °F - 21.9 °F 91% 29.25 in 10.0 mi Calm Calm - N/A   Overcast
4:53 AM 24.1 °F - 21.9 °F 91% 29.24 in 10.0 mi Calm Calm - N/A   Overcast
5:53 AM 23.0 °F 17.0 °F 21.0 °F 92% 29.22 in 10.0 mi ENE 4.6 mph - N/A   Overcast
6:09 AM 23.0 °F 15.8 °F 21.2 °F 93% 29.21 in 10.0 mi ENE 5.8 mph - N/A   Overcast
6:18 AM 24.8 °F 20.5 °F 21.2 °F 86% 29.21 in 10.0 mi ENE 3.5 mph - N/A   Overcast
6:53 AM 23.0 °F 18.4 °F 21.0 °F 92% 29.22 in 10.0 mi NE 3.5 mph - N/A   Overcast
7:53 AM 23.0 °F - 21.0 °F 92% 29.20 in 10.0 mi Calm Calm - N/A   Overcast
8:53 AM 24.1 °F - 21.9 °F 91% 29.19 in 10.0 mi Calm Calm - N/A   Overcast
9:53 AM 25.0 °F 20.7 °F 21.9 °F 88% 29.18 in 10.0 mi NW 3.5 mph - N/A   Overcast
10:37 AM 26.6 °F 20.0 °F 24.8 °F 93% 29.16 in 9.0 mi North 5.8 mph - N/A   Overcast
10:43 AM 26.6 °F 21.2 °F 24.8 °F 93% 29.16 in 10.0 mi NNE 4.6 mph - N/A   Overcast
10:53 AM 26.1 °F 20.5 °F 25.0 °F 96% 29.17 in 7.0 mi North 4.6 mph - N/A   Overcast
11:31 AM 26.6 °F 21.2 °F 26.6 °F 100% 29.15 in 9.0 mi North 4.6 mph - N/A   Overcast
11:53 AM 28.0 °F 22.8 °F 26.1 °F 92% 29.17 in 10.0 mi North 4.6 mph - N/A   Overcast
11:57 AM 28.4 °F 23.3 °F 26.6 °F 93% 29.15 in 10.0 mi North 4.6 mph - N/A   Overcast
12:53 PM 28.0 °F 20.0 °F 26.1 °F 92% 29.15 in 7.0 mi North 8.1 mph - N/A   Overcast
1:26 PM 28.4 °F 21.2 °F 26.6 °F 93% 29.13 in 2.0 mi North 6.9 mph - 0.00 in Snow Light Snow
1:53 PM 28.0 °F 19.3 °F 26.1 °F 92% 29.14 in 2.0 mi North 9.2 mph - 0.00 in Snow Light Snow
2:53 PM 28.0 °F 20.8 °F 25.0 °F 88% 29.13 in 3.0 mi North 6.9 mph - 0.00 in Snow Light Snow
2:58 PM 28.4 °F 21.2 °F 24.8 °F 86% 29.12 in 2.5 mi North 6.9 mph - 0.00 in Snow Light Snow
3:46 PM 28.4 °F 21.2 °F 24.8 °F 86% 29.12 in 5.0 mi North 6.9 mph - 0.00 in Snow Light Snow
3:53 PM 28.0 °F 20.8 °F 25.0 °F 88% 29.14 in 3.0 mi NNW 6.9 mph - 0.00 in Snow Light Snow
3:55 PM 28.4 °F 21.2 °F 24.8 °F 86% 29.13 in 1.8 mi NNW 6.9 mph - 0.00 in Snow Light Snow
4:16 PM 26.6 °F 19.1 °F 24.8 °F 93% 29.13 in 1.2 mi North 6.9 mph - 0.00 in Snow Light Snow
4:48 PM 26.6 °F 18.2 °F 24.8 °F 93% 29.12 in 3.0 mi North 8.1 mph - 0.00 in Snow Light Snow
4:53 PM 26.1 °F 17.6 °F 24.1 °F 92% 29.13 in 2.0 mi North 8.1 mph - 0.00 in Snow Light Snow
5:17 PM 26.6 °F 20.0 °F 24.8 °F 93% 29.13 in 2.0 mi NNE 5.8 mph - 0.00 in Snow Light Snow
5:49 PM 26.6 °F 22.6 °F 23.0 °F 86% 29.13 in 2.0 mi NNE 3.5 mph - 0.00 in Snow Light Snow
5:53 PM 26.1 °F 21.9 °F 23.0 °F 88% 29.14 in 2.0 mi North 3.5 mph - 0.01 in Snow Light Snow
6:53 PM 21.9 °F 17.2 °F 21.0 °F 96% 29.15 in 9.0 mi North 3.5 mph - 0.00 in   Mostly Cloudy
7:53 PM 21.0 °F 16.2 °F 19.9 °F 96% 29.16 in 10.0 mi NNW 3.5 mph - N/A   Overcast
8:14 PM 21.2 °F 16.4 °F 19.4 °F 93% 29.16 in 10.0 mi NW 3.5 mph - N/A   Overcast
8:33 PM 21.2 °F - 21.2 °F 100% 29.16 in 10.0 mi Calm Calm - N/A   Overcast
8:53 PM 23.0 °F - 21.9 °F 96% 29.18 in 10.0 mi Calm Calm - N/A   Overcast
9:51 PM 21.2 °F - 21.2 °F 100% 29.18 in 10.0 mi Calm Calm - N/A   Overcast
9:53 PM 21.9 °F - 21.0 °F 96% 29.19 in 10.0 mi Calm Calm - N/A   Overcast
10:00 PM 23.0 °F - 21.2 °F 93% 29.18 in 10.0 mi Calm Calm - N/A   Overcast
10:31 PM 23.0 °F - 21.2 °F 93% 29.18 in 10.0 mi Calm Calm - N/A   Overcast
10:53 PM 23.0 °F - 21.9 °F 96% 29.20 in 10.0 mi Calm Calm - N/A   Overcast
11:53 PM 24.1 °F - 21.9 °F 91% 29.21 in 6.0 mi Calm Calm - 0.00 in Snow Light Snow